This demonstration page uses our WeatherBlox Daily Observations layout. Learn more.

36.17497, -115.13722

Hourly Observations for March 12, 2018

Temp ( °F °C ) Dew Point ( °F °C ) Humidity (%) Winds ( mph kmh ) Pressure ( in mb ) Visibility ( mi km ) Precip ( " mm )
12:53 am 00:53 Clear 55 12.8 48 8.9 77 77 NNW 7 11 30.17 1022 10 16.0934 0 0
1:53 am 01:53 Clear 53 11.7 48 8.9 83 83 NW 3 6 30.18 1022 10 16.0934 0 0
2:53 am 02:53 Clear 54 12.2 46 7.8 75 75 WSW 5 7 30.16 1021 10 16.0934 0 0
3:53 am 03:53 Clear 51 10.6 46 7.8 83 83 NW 3 6 30.14 1021 10 16.0934 0 0
4:53 am 04:53 Clear 51 10.6 46 7.8 83 83 NW 6 9 30.15 1021 10 16.0934 0 0
5:53 am 05:53 Clear 52 11.1 44 6.7 75 75 WNW 5 7 30.14 1021 10 16.0934 0 0
6:53 am 06:53 Clear 52 11.1 44 6.7 75 75 Calm 30.15 1021 10 16.0934 0 0
7:53 am 07:53 Sunny 52 11.1 45 7.2 77 77 Calm 30.16 1021 10 16.0934 0 0
8:53 am 08:53 Sunny 56 13.3 46 7.8 70 70 Calm 30.18 1022 10 16.0934 0 0
9:53 am 09:53 Sunny 59 15 46 7.8 62 62 Calm 30.18 1022 10 16.0934 0 0
10:53 am 10:53 Sunny 62 16.7 45 7.2 54 54 VRB 3 6 30.17 1022 10 16.0934 0 0
11:53 am 11:53 Sunny 66 18.9 42 5.6 42 42 VRB 3 6 30.16 1022 10 16.0934 0 0
12:53 pm 12:53 Sunny 67 19.4 43 6.1 42 42 VRB 5 7 30.14 1021 10 16.0934 0 0
1:53 pm 13:53 Sunny 69 20.6 44 6.7 41 41 E 5 7 30.11 1020 10 16.0934 0 0
2:53 pm 14:53 Sunny 70 21.1 43 6.1 38 38 SE 10 17 30.07 1018 10 16.0934 0 0
3:53 pm 15:53 Sunny 71 21.7 43 6.1 36 36 VRB 5 7 30.05 1018 10 16.0934 0 0
4:53 pm 16:53 Mostly Sunny 71 21.7 43 6.1 36 36 SSE 5 7 30.04 1017 10 16.0934 0 0
5:53 pm 17:53 Sunny 70 21.1 42 5.6 37 37 E 3 6 30.03 1017 10 16.0934 0 0
6:53 pm 18:53 Clear 70 21.1 42 5.6 37 37 Calm 30.04 1017 10 16.0934 0 0
7:53 pm 19:53 Clear 67 19.4 45 7.2 45 45 E 5 7 30.04 1017 10 16.0934 0 0
8:53 pm 20:53 Clear 65 18.3 45 7.2 49 49 WNW 5 7 30.05 1018 10 16.0934 0 0
9:53 pm 21:53 Clear 63 17.2 46 7.8 54 54 NW 5 7 30.06 1018 10 16.0934 0 0
10:53 pm 22:53 Clear 60 15.6 48 8.9 65 65 NNW 6 9 30.07 1018 10 16.0934 0 0
11:53 pm 23:53 Clear 58 14.4 48 8.9 70 70 NNW 6 9 30.06 1018 10 16.0934 0 0

Powered by AerisWeather